Helicity
-19 3 4 6 8 8 -4 14 17 -3 1 5 -3 -18 -19 2 -26 -5 21 25 14 20
-3 -11 -19 -31 3 -3 1 28 7 -26 -24 -15 -26 -22 -19 -8 3 -5 42 20 26 19
-1 -3 -10 -26 -23 -17 -14 25 37 17 40 37 4 -46 -40 6 -1 3 2 27 20 17
-5 11 0 -8 -20 -16 -8 5 23 -3 57 17 -21 -40 -39 -14 13 10 10 22 19 9
49 8 -2 -7 -22 24 34 10 15 -16 11 5 -27 -21 -20 0 15 10 0 11 18 4
19 11 -21 13 -9 35 33 35 37 42 28 1 -2 21 17 34 37 25 25 18 6 8
4 62 28 -12 54 60 109 64 66 30 25 -5 -12 29 38 36 29 31 36 28 25 17
53 83 65 22 44 65 116 74 90 72 37 28 37 28 32 32 34 33 28 28 35 28
27 40 60 33 38 47 29 47 61 103 94 71 45 27 29 43 60 55 42 35 35 57
-27 34 1 29 42 33 42 55 24 74 88 99 92 49 34 40 64 72 66 60 79 76
-29 5 64 43 -12 8 10 9 46 39 43 67 79 54 64 51 76 77 57 77 100 107
-10 35 68 18 -39 -3 5 0 -2 64 76 75 72 73 66 85 96 79 61 71 95 133
46 41 24 42 68 75 79 51 45 40 77 67 64 51 62 126 139 113 115 132 138 125
74 58 46 41 59 96 118 105 102 77 84 71 82 69 30 61 137 141 167 201 229 225
Wind_Speed
72 71 70 67 64 65 63 60 60 42 30 16 25 23 15 12 17 8 37 38 38 35
74 74 74 70 65 68 64 64 62 49 41 19 28 33 19 15 11 12 19 43 40 40
74 77 75 74 71 69 68 59 62 32 39 31 29 43 37 29 14 13 20 40 39 37
77 78 76 75 74 71 72 70 63 65 34 42 43 56 50 36 6 13 17 33 41 46
67 75 78 80 78 65 66 72 71 66 35 48 58 63 55 40 2 7 9 31 44 49
69 72 78 71 79 74 72 75 73 65 65 62 57 62 62 11 22 30 33 37 51 52
80 59 59 52 36 70 46 26 39 74 71 70 65 64 62 40 34 46 47 47 40 46
55 46 50 58 56 58 55 77 73 75 72 71 61 53 51 47 44 42 49 51 37 38
51 53 69 67 53 53 64 72 29 32 56 68 70 60 33 35 44 44 43 45 25 27
15 69 68 73 61 63 61 65 84 54 37 45 58 22 19 20 36 46 42 29 26 23
22 62 70 72 66 74 76 80 77 82 51 30 47 36 32 20 34 42 38 26 22 21
19 31 65 75 83 86 67 76 75 71 69 60 65 30 27 31 40 41 44 39 26 23
24 29 29 33 34 38 56 64 64 75 69 69 74 70 64 48 50 53 52 48 39 30
29 31 34 37 38 41 42 44 57 62 55 56 59 60 57 59 56 51 49 44 40 36
Wind_Direction
214 224 222 221 222 225 217 236 229 176 156 127 143 139 112 94 116 36 245 269 265 282
208 219 223 217 232 225 232 236 223 189 177 142 150 160 125 102 26 41 335 250 264 260
213 216 221 224 230 228 228 246 240 172 175 168 161 181 173 254 347 2 336 271 272 271
227 222 225 227 228 236 234 228 235 207 172 180 183 205 194 173 34 343 343 294 269 249
251 234 215 224 227 248 246 223 215 211 173 192 199 220 199 177 94 1 344 298 268 248
252 245 226 231 225 237 239 231 236 245 245 209 199 236 223 288 292 295 293 287 240 236
241 257 259 258 256 245 260 197 264 236 241 225 210 249 250 278 285 274 274 274 288 284
255 262 263 261 261 257 259 242 250 244 245 246 261 268 269 274 278 282 275 274 294 297
266 261 250 254 261 261 253 246 199 266 264 256 256 265 278 282 280 281 284 285 307 309
281 245 255 252 258 258 260 259 236 264 270 271 267 261 243 260 283 281 282 288 297 305
292 260 257 251 259 253 257 253 257 248 268 267 274 204 206 244 279 282 284 280 281 290
341 291 257 249 250 255 266 260 261 262 263 269 269 263 230 273 279 280 280 285 274 274
337 311 310 297 286 276 270 270 267 260 265 269 268 271 273 276 277 276 278 279 280 272
328 324 314 306 302 293 288 279 275 273 276 276 277 277 280 278 277 274 275 274 272 270